Weather in Onezhskiy

Russia / Republic of Karelia     61°59′11″N   35°53′51″E
temp.,
°C
wind,
m/s
gust,
m/s
humid.,
%
clouds,
%
prec.,
mm/h
press.,
hPa
HPBL,
m
27 july, tue
tue2700:00+14e259211 0.0 102095
03:00+13ene268389 0.1 1020166
06:00+13ene267094 0.0 1021168
09:00+17ene2345100 0.0 1021468
12:00+23n12374 0.0 10201179
15:00+24nw33365 0.0 10191643
18:00+23nnw22345 0.0 10181319
21:00+16ene22604 0.0 101818
28 july, wed
wed2800:00+13ese22605 0.0 101818
03:00+12ese23645 0.0 101754
06:00+14se246250 0.0 1016110
09:00+21s344115 0.0 1014480
12:00+22s344628 0.0 1012575
15:00+25sw234114 0.0 1010977
18:00+25sw2244100 0.0 1008476
21:00+20s1163100 0.0 100718
29 july, thu
thu2900:00+17e1180100 0.4 100618
03:00+17se1187100 0.4 100415
06:00+17ssw1293100 1.8 100455
09:00+19sw2478100 1.8 1003368
12:00+21sw3566100 0.0 1002569
15:00+21ssw3565100 0.0 1000491
18:00+20ssw4872100 0.4 998591
21:00+17wsw2291100 1.9 99849
30 july, fri
fri3000:00+17wsw41194100 2.6 996415
03:00+16wsw4119665 4.7 997460
06:00+16wsw4109580 0.1 997451
09:00+18wsw587614 0.1 998669
12:00+21sw696493 0.0 9981228
15:00+23wsw7105082 0.0 9981633
18:00+21wsw510514 0.0 9971494
21:00+19sw511593 0.0 997745
31 july, sat
sat3100:00+16sw411725 0.2 998518
03:00+15sw4128286 0.2 998488
06:00+14sse299365 0.6 997357
09:00+19s486699 0.7 996654
12:00+18ssw3874100 1.1 995992
15:00+14wsw3996100 5.1 995636
18:00+14sw4996100 6.1 995682
21:00+14wsw379468 6.8 996388